Wind_Speed
28 25 31 33 35 33 38 35 34 31 32 31 36 36 24 32 28 24 23 23 21 19 15 14 13 12 11 10 11 12 14 15 18 19 22 24 25 26 28 30 32 33 34 35
29 30 30 30 29 34 34 41 38 29 25 26 31 31 28 31 29 24 22 24 22 20 18 16 15 13 12 14 16 16 19 21 23 25 26 26 27 29 31 34 36 37 38 39
27 24 23 30 31 22 28 41 40 36 35 28 28 25 28 28 28 27 24 23 24 22 20 18 17 16 16 17 19 21 24 26 27 28 28 30 32 33 33 35 37 37 38 37
18 15 26 22 28 30 22 31 40 36 35 17 25 9 25 26 27 24 25 22 24 23 21 21 20 19 19 20 22 24 26 28 29 29 31 33 34 35 31 31 30 30 31 31
16 22 24 24 26 27 26 21 29 29 28 24 21 9 21 25 25 24 22 20 22 24 24 25 24 21 22 24 25 26 28 29 30 31 31 28 25 25 26 27 27 28 29 30
19 20 21 23 19 22 21 27 23 24 21 9 21 23 8 28 34 29 20 25 14 21 21 21 19 21 23 23 24 26 28 26 23 21 20 20 21 23 25 27 29 29 28 29
19 23 21 27 22 23 25 25 6 3 4 3 14 16 6 6 8 35 37 30 31 29 25 25 21 18 20 26 28 26 20 17 16 16 17 19 22 25 27 29 30 29 30 30
20 14 25 25 32 22 32 27 9 6 5 4 12 9 8 18 9 8 12 10 12 12 15 26 31 31 28 30 19 15 14 15 14 16 19 23 27 30 31 33 34 33 32 30
12 14 24 33 30 26 29 16 11 9 6 5 9 8 6 14 23 17 14 16 19 20 19 22 23 19 16 14 11 10 11 14 18 22 27 31 31 32 33 34 36 36 36 37
8 11 25 24 30 25 28 23 11 5 4 2 5 6 11 15 15 19 14 13 15 16 19 16 14 14 11 10 11 13 17 21 26 31 32 31 32 32 33 33 33 34 34 35
12 10 22 20 15 28 21 25 9 9 3 4 4 3 10 14 18 18 16 16 19 19 16 14 12 11 12 13 17 19 24 28 31 31 31 32 33 34 36 37 39 40 40 38
19 13 20 28 14 20 20 23 14 10 6 4 4 4 9 18 16 13 17 18 16 14 10 9 10 13 16 18 22 28 31 32 32 33 34 34 35 36 37 39 40 41 42 42
20 10 11 7 21 20 25 24 26 19 7 12 4 9 21 21 21 18 15 15 13 10 10 12 14 19 24 27 30 32 32 32 34 36 38 39 39 40 43 45 47 47 48 48
27 18 18 16 11 24 35 34 26 25 17 12 11 23 25 24 19 16 12 9 8 11 14 17 22 27 31 34 34 34 33 37 38 39 39 41 43 46 48 50 50 51 52 53
22 21 20 15 20 17 26 31 31 29 24 17 13 23 30 25 20 14 11 12 15 18 21 25 29 32 33 32 33 36 39 39 38 37 37 35 34 34 36 38 39 40 42 45
23 17 20 14 16 18 23 33 32 30 23 15 17 29 28 24 16 13 16 18 22 27 30 31 32 30 31 32 35 34 32 31 29 29 32 34 35 38 40 42 43 45 46 47
19 24 22 13 14 12 14 31 34 28 27 21 22 25 29 23 21 22 23 26 30 30 29 29 28 29 32 29 26 29 32 32 33 35 37 38 40 41 42 43 45 47 49 51
25 26 11 10 18 2 8 19 27 27 27 24 25 25 26 29 28 27 28 28 26 26 25 26 28 30 29 29 32 35 36 36 37 38 40 40 42 44 46 48 50 52 53 55
14 13 7 7 8 2 11 18 23 26 25 24 26 24 24 24 22 20 20 22 23 25 28 29 29 29 31 33 35 37 37 38 39 40 42 44 47 50 53 56 57 57 59 60
12 16 8 13 6 5 9 15 15 17 17 24 24 22 24 24 21 20 22 24 28 29 29 28 29 32 33 35 37 39 40 42 42 44 46 49 53 56 59 61 62 62 62 63
15 16 14 10 5 5 10 17 20 17 9 21 23 23 21 21 21 21 22 25 28 29 28 28 29 30 31 35 40 43 44 45 47 49 51 54 57 58 59 61 60 60 61 63
10 8 9 11 9 7 9 15 17 16 14 10 14 15 14 14 16 19 23 25 26 26 27 26 26 29 35 41 44 45 47 49 51 53 55 56 57 57 57 58 58 58 60 61
7 9 6 9 7 8 14 15 18 17 15 14 15 14 16 18 19 21 22 23 23 25 26 28 30 33 39 42 46 49 50 51 52 53 54 55 54 55 56 58 58 59 60 61
11 13 14 13 13 13 12 15 16 16 17 18 19 19 18 21 21 21 22 24 26 26 28 32 36 39 41 43 47 49 51 53 53 54 54 55 56 56 57 58 59 60 60 60
13 15 16 16 13 13 21 18 14 14 15 17 18 20 21 22 20 21 23 25 26 28 33 37 41 44 47 47 48 49 51 52 52 53 54 55 56 57 58 57 57 58 57 57
10 16 17 8 9 15 15 15 17 17 18 20 21 19 18 20 20 23 26 27 30 33 36 40 45 48 47 48 49 49 50 51 53 53 54 55 56 56 56 58 58 54 54 54
Wind_Direction
199 226 220 216 212 208 217 204 197 202 207 214 217 218 209 209 209 210 212 211 211 214 213 216 221 228 237 247 257 267 276 281 284 288 289 290 293 297 300 302 302 303 301 301
220 212 218 208 204 212 208 210 197 191 190 195 200 205 206 203 205 202 211 217 214 214 222 229 233 238 245 251 258 265 270 276 283 289 290 292 293 293 297 298 296 296 296 295
211 216 209 215 212 207 202 203 196 202 203 205 206 195 192 197 202 204 209 217 219 216 219 223 229 234 240 247 257 266 275 282 290 292 294 294 292 292 294 294 292 292 293 297
203 208 206 207 212 206 203 215 215 203 205 208 203 216 194 189 184 185 197 201 216 216 221 233 240 248 251 255 263 269 276 280 284 288 291 292 293 294 292 290 293 296 294 294
188 202 189 196 196 198 200 174 194 198 198 203 212 226 208 194 190 186 187 207 211 209 217 225 236 242 251 259 265 271 275 281 286 286 286 287 289 291 293 294 292 291 291 290
185 177 190 188 186 197 188 191 194 187 196 203 212 212 237 231 205 193 209 201 218 225 224 233 239 247 256 261 270 277 278 275 276 277 281 286 290 291 294 297 298 297 294 293
188 190 182 194 181 193 192 156 117 130 187 215 194 194 160 152 239 221 221 219 208 229 241 238 259 268 275 270 268 266 261 263 267 272 281 290 294 296 298 297 297 298 297 296
169 181 175 186 183 179 176 172 165 165 178 157 161 192 188 203 206 136 164 178 203 214 235 247 246 254 255 259 245 242 251 260 265 280 293 300 301 300 297 296 296 297 297 297
165 163 165 178 189 175 185 177 167 119 122 131 172 160 197 205 215 217 213 212 227 241 236 234 233 233 231 234 250 262 264 277 290 292 300 303 301 301 300 300 303 303 302 302
156 149 163 165 178 187 184 176 168 137 124 129 199 174 155 187 187 200 206 207 198 186 203 207 208 212 228 246 255 273 287 295 298 299 299 300 299 299 300 301 302 304 307 308
182 172 175 169 175 188 175 187 175 168 171 151 138 210 174 181 191 185 186 169 168 190 202 202 215 237 251 257 282 289 295 299 302 300 300 301 300 301 302 302 302 302 301 299
187 190 177 194 181 185 196 198 183 180 187 149 125 106 134 155 165 178 163 174 186 199 216 241 259 274 284 293 299 300 300 300 296 294 297 298 298 299 300 301 301 300 298 298
164 182 142 195 224 205 204 204 210 215 202 185 134 150 152 155 155 162 183 186 196 219 247 271 285 294 295 296 297 293 292 292 295 298 299 299 299 298 298 299 299 299 299 300
182 178 192 190 211 215 212 213 218 217 208 190 190 164 165 172 179 188 193 206 233 253 269 280 287 289 290 289 287 287 286 287 290 293 296 295 294 295 297 297 297 296 296 295
187 190 197 214 221 222 222 206 208 209 214 210 189 188 179 183 187 197 215 237 255 269 276 282 280 279 279 278 281 285 288 289 290 292 295 298 300 301 301 302 303 303 302 300
207 191 195 190 200 213 211 205 207 211 204 197 182 186 188 193 211 227 244 257 266 268 268 269 273 274 279 286 291 292 292 296 300 303 303 304 304 303 303 302 300 299 298 297
201 178 174 168 174 178 210 208 207 209 214 210 197 189 195 212 231 237 249 259 265 268 272 280 284 287 291 295 304 307 308 309 309 308 307 305 302 300 299 300 300 300 299 299
185 171 153 155 155 166 210 199 209 215 222 224 226 224 225 234 246 252 257 260 266 273 280 287 294 299 301 306 309 307 307 308 307 305 303 301 303 304 306 306 306 305 303 300
150 148 138 167 188 223 192 194 196 199 206 215 223 228 233 240 242 245 259 270 279 288 293 296 299 300 303 306 307 306 307 305 304 304 305 307 308 310 311 310 308 307 305 302
185 188 189 170 186 187 192 191 191 199 219 218 224 227 237 244 253 262 271 283 291 292 293 293 297 303 305 310 308 305 303 303 305 307 309 311 312 312 311 311 309 308 305 304
189 203 217 209 224 224 198 191 195 196 221 220 222 229 235 243 256 268 274 277 278 282 287 295 302 306 309 305 302 302 303 306 311 313 312 312 311 311 311 310 309 308 307 305
200 203 199 205 210 235 210 209 205 217 225 217 225 233 240 250 258 265 269 274 282 291 300 305 307 306 303 301 301 304 309 311 311 311 313 313 313 313 312 311 311 309 308 306
221 213 204 203 211 199 195 206 214 229 234 233 233 234 248 260 273 286 290 291 297 298 300 301 304 305 303 302 308 310 311 311 314 314 314 314 314 314 313 312 311 311 311 310
239 232 231 228 220 203 207 208 211 220 232 239 247 257 265 281 287 288 289 292 295 296 301 302 301 299 302 307 310 313 314 315 315 316 316 316 316 316 316 315 315 314 314 313
245 239 244 242 228 221 224 225 227 233 247 254 261 269 276 282 282 286 292 295 298 300 300 296 298 306 312 314 314 315 316 318 318 318 317 317 317 316 316 317 318 318 318 317
253 246 235 232 210 223 231 230 235 244 257 265 271 275 277 283 290 294 295 293 291 289 294 303 309 312 314 315 317 319 319 319 318 318 318 319 319 318 319 318 317 319 319 317
Height
3104 3108 3107 3115 3117 3121 3126 3130 3135 3138 3142 3147 3148 3150 3151 3154 3159 3162 3166 3168 3170 3174 3177 3178 3179 3181 3183 3185 3186 3187 3187 3188 3188 3188 3188 3186 3186 3186 3185 3183 3182 3181 3178 3175
3103 3102 3105 3112 3114 3118 3120 3124 3130 3134 3139 3142 3143 3146 3148 3150 3156 3160 3163 3165 3168 3170 3172 3174 3176 3178 3179 3180 3181 3182 3183 3182 3182 3182 3183 3182 3181 3180 3178 3176 3176 3174 3172 3170
3099 3098 3101 3106 3110 3114 3117 3117 3123 3130 3134 3136 3140 3143 3143 3148 3153 3156 3160 3163 3165 3166 3167 3169 3171 3173 3173 3174 3175 3177 3177 3177 3177 3176 3176 3175 3174 3174 3173 3171 3169 3167 3165 3163
3095 3096 3098 3103 3107 3112 3115 3118 3122 3124 3130 3133 3137 3137 3138 3144 3147 3151 3157 3160 3160 3161 3163 3165 3167 3168 3169 3170 3171 3172 3173 3173 3172 3172 3171 3169 3167 3166 3164 3163 3162 3162 3159 3156
3089 3091 3095 3099 3103 3108 3112 3117 3119 3124 3127 3129 3132 3135 3133 3137 3140 3143 3147 3153 3151 3153 3157 3160 3163 3164 3165 3165 3166 3167 3168 3168 3168 3166 3164 3163 3160 3159 3157 3156 3155 3154 3152 3148
3087 3090 3095 3098 3103 3107 3109 3114 3119 3122 3125 3128 3126 3131 3131 3131 3135 3137 3141 3147 3149 3156 3155 3157 3158 3159 3160 3160 3160 3161 3161 3161 3159 3158 3156 3154 3154 3152 3150 3147 3146 3145 3143 3140
3084 3088 3091 3096 3101 3105 3106 3111 3120 3125 3125 3123 3122 3128 3130 3131 3130 3131 3138 3139 3139 3146 3149 3152 3154 3153 3153 3153 3154 3154 3155 3155 3155 3153 3151 3150 3149 3147 3144 3140 3138 3138 3135 3132
3083 3089 3090 3093 3096 3097 3103 3107 3110 3117 3120 3120 3122 3123 3124 3130 3132 3133 3134 3136 3142 3146 3147 3150 3149 3149 3150 3149 3150 3150 3151 3151 3150 3148 3147 3145 3142 3139 3137 3134 3131 3128 3125 3122
3079 3082 3084 3089 3095 3100 3102 3104 3109 3110 3114 3116 3120 3123 3124 3127 3129 3132 3135 3137 3139 3140 3143 3144 3143 3146 3147 3147 3148 3148 3147 3146 3145 3142 3141 3138 3134 3132 3130 3127 3124 3121 3118 3115
3075 3079 3082 3086 3093 3097 3098 3103 3106 3105 3114 3118 3117 3117 3119 3122 3124 3127 3131 3135 3136 3137 3137 3141 3142 3144 3145 3145 3144 3143 3141 3139 3138 3135 3132 3129 3125 3123 3120 3118 3115 3112 3108 3106
3076 3078 3083 3085 3087 3091 3095 3097 3100 3104 3108 3110 3116 3115 3116 3119 3122 3125 3129 3133 3135 3135 3136 3138 3140 3141 3141 3140 3139 3137 3135 3132 3130 3126 3123 3121 3120 3116 3114 3111 3108 3104 3100 3097
3073 3077 3082 3085 3089 3091 3093 3095 3099 3102 3106 3106 3108 3116 3114 3119 3122 3123 3125 3127 3131 3134 3135 3136 3135 3136 3136 3134 3131 3129 3126 3125 3123 3121 3117 3115 3112 3108 3105 3101 3098 3093 3091 3088
3071 3075 3081 3086 3088 3087 3089 3094 3099 3101 3103 3103 3107 3116 3118 3119 3121 3122 3124 3127 3129 3131 3131 3131 3131 3129 3130 3128 3125 3123 3121 3119 3117 3114 3110 3106 3103 3100 3096 3093 3089 3085 3082 3078
3069 3071 3073 3076 3076 3080 3086 3091 3096 3099 3101 3103 3105 3112 3115 3116 3117 3119 3122 3125 3126 3126 3126 3125 3126 3125 3124 3122 3120 3118 3116 3113 3110 3107 3103 3099 3095 3091 3086 3082 3078 3075 3070 3066
3067 3070 3073 3074 3076 3079 3081 3087 3093 3096 3100 3102 3104 3108 3112 3114 3115 3118 3120 3120 3121 3123 3123 3122 3121 3120 3118 3116 3115 3113 3109 3106 3102 3098 3093 3090 3085 3081 3078 3074 3070 3065 3059 3055
3065 3068 3071 3073 3075 3078 3080 3085 3090 3095 3097 3100 3102 3105 3110 3112 3114 3115 3114 3115 3117 3118 3118 3116 3115 3114 3113 3112 3109 3105 3101 3097 3093 3088 3084 3080 3076 3072 3068 3063 3059 3054 3049 3044
3064 3065 3069 3072 3075 3078 3082 3081 3087 3091 3094 3099 3102 3105 3107 3109 3112 3111 3111 3111 3112 3111 3110 3110 3109 3107 3105 3103 3100 3097 3093 3087 3082 3078 3075 3070 3067 3063 3058 3051 3046 3041 3036 3031
3063 3064 3068 3072 3075 3079 3075 3077 3083 3087 3092 3095 3099 3103 3105 3106 3106 3103 3103 3104 3106 3106 3105 3104 3102 3100 3096 3094 3091 3087 3084 3079 3074 3071 3068 3063 3056 3051 3045 3038 3032 3027 3022 3016
3062 3063 3067 3071 3072 3074 3074 3076 3080 3082 3088 3090 3093 3096 3097 3098 3098 3097 3097 3098 3101 3100 3097 3095 3093 3092 3090 3086 3083 3080 3075 3070 3067 3062 3057 3050 3044 3036 3030 3023 3018 3011 3004 2999
3063 3065 3069 3070 3072 3072 3071 3074 3077 3081 3084 3085 3087 3089 3090 3093 3094 3094 3092 3093 3093 3092 3091 3089 3087 3084 3081 3077 3075 3070 3066 3062 3057 3051 3045 3038 3030 3023 3015 3007 3001 2993 2985 2978
3063 3065 3065 3066 3067 3068 3069 3071 3074 3079 3082 3079 3082 3085 3087 3090 3091 3090 3089 3089 3088 3087 3086 3083 3080 3076 3072 3069 3067 3062 3057 3051 3045 3037 3030 3023 3018 3008 3001 2993 2986 2975 2969 2962
3061 3062 3062 3064 3066 3068 3068 3070 3074 3074 3074 3077 3079 3081 3084 3085 3085 3084 3083 3082 3082 3080 3077 3075 3072 3069 3064 3060 3057 3053 3044 3038 3031 3025 3015 3009 3002 2995 2986 2979 2971 2963 2954 2946
3059 3059 3059 3061 3061 3061 3063 3067 3069 3070 3073 3075 3077 3078 3080 3080 3079 3077 3075 3075 3074 3072 3070 3067 3065 3062 3057 3052 3044 3038 3033 3027 3018 3010 3002 2995 2988 2980 2973 2964 2956 2947 2939 2930
3054 3055 3055 3058 3059 3059 3061 3063 3065 3067 3069 3071 3072 3073 3073 3073 3072 3071 3070 3069 3067 3065 3062 3060 3057 3054 3048 3042 3035 3028 3019 3011 3003 2995 2988 2980 2973 2965 2958 2950 2941 2932 2924 2915
3052 3051 3051 3052 3054 3056 3058 3061 3063 3064 3066 3067 3067 3067 3068 3067 3067 3065 3064 3062 3060 3058 3055 3052 3047 3041 3035 3028 3021 3014 3006 2997 2990 2983 2975 2968 2960 2953 2945 2937 2928 2920 2912 2901
3042 3043 3045 3049 3051 3053 3055 3056 3058 3060 3061 3062 3062 3063 3063 3062 3061 3059 3057 3055 3053 3051 3047 3042 3035 3028 3022 3015 3008 3001 2994 2986 2978 2971 2963 2956 2948 2940 2932 2924 2918 2913 2902 2892